Temperature
24 24 24 25 26 26 26 26 26 28 29 28 27 26 26 26 26 25 24 23 23 22 21 21 21 20 20 20 20 19 19 19 19 19 18 18 18 18 18 18 17 17 17 17
24 24 25 26 26 26 25 25 26 27 28 27 26 25 25 24 23 22 22 21 21 20 19 18 19 19 19 19 19 18 19 19 19 18 18 18 18 17 17 17 17 17 16 16
24 25 26 25 25 25 25 25 25 26 26 27 25 24 23 23 22 21 20 19 19 18 17 17 17 17 17 17 18 18 18 18 18 18 18 17 17 17 17 16 16 16 16 16
25 26 26 25 25 25 24 26 26 25 25 25 25 23 23 22 21 20 19 18 17 16 16 15 15 16 16 16 16 17 17 17 18 17 17 17 17 16 16 16 15 15 15 15
24 25 25 25 25 25 25 26 26 25 25 24 25 23 22 22 20 19 18 16 15 15 15 14 14 15 15 15 16 16 16 16 16 17 16 16 16 16 15 15 14 14 14 14
25 26 26 25 26 26 26 26 25 25 25 23 24 23 22 21 20 18 17 15 14 14 14 14 14 14 14 14 14 15 15 15 15 16 15 15 15 15 14 14 13 13 13 12
23 24 25 25 25 25 25 24 23 23 23 23 25 23 21 21 19 18 16 14 13 13 13 13 13 13 13 13 13 14 14 14 14 14 14 14 14 14 13 13 12 12 12 11
21 21 23 24 24 24 24 24 23 22 22 23 24 22 19 19 17 16 14 13 13 12 12 12 12 12 12 12 12 13 13 13 13 13 13 13 13 12 12 11 11 11 10 10
20 20 23 24 25 25 24 24 25 23 22 22 21 19 17 18 16 15 14 12 12 11 11 11 11 11 11 11 11 12 12 12 12 12 12 11 11 11 11 10 10 9 9 9
22 20 23 25 25 26 26 25 24 23 21 21 20 20 19 17 16 15 13 12 11 10 10 10 10 10 10 10 10 11 11 11 10 11 10 10 10 9 9 9 9 8 8 8
22 20 22 24 24 24 24 25 24 24 23 22 19 19 19 18 16 15 13 11 10 10 10 10 9 9 9 9 9 9 10 9 9 9 9 9 8 8 8 8 7 7 7 7
22 20 20 22 24 25 25 25 24 22 22 22 21 18 18 17 16 14 12 11 10 9 9 9 9 9 9 9 9 9 9 8 8 8 8 7 7 7 7 7 6 6 6 6
21 18 18 19 22 24 24 25 25 24 23 22 20 17 17 16 15 13 11 10 9 9 9 9 8 8 8 8 8 8 8 7 7 7 7 7 6 6 6 6 6 6 5 5
20 18 17 17 19 21 22 24 24 24 22 21 19 17 16 14 13 12 10 9 9 9 8 8 8 7 7 7 7 7 7 7 7 7 6 6 6 6 5 5 5 5 5 5
20 18 17 18 19 21 22 23 23 22 21 20 18 17 15 14 13 11 10 9 8 8 8 7 7 7 7 7 7 7 6 6 6 6 6 6 5 5 5 5 5 5 5 5
20 18 18 19 20 20 21 22 22 21 20 19 18 15 15 13 12 10 9 9 8 7 7 7 7 6 6 6 6 6 6 6 6 6 6 5 5 5 5 5 5 5 5 5
21 20 19 19 21 21 20 21 21 20 20 19 17 15 14 13 11 10 9 8 8 7 7 6 6 6 6 6 6 6 6 6 6 6 6 5 5 5 5 5 5 5 4 4
21 20 20 20 20 18 19 21 21 19 18 18 16 14 13 11 10 9 9 8 7 7 6 6 6 6 6 6 6 6 6 6 6 6 6 6 5 5 5 5 5 5 4 4
22 20 20 19 19 18 19 20 20 19 17 16 15 13 11 10 9 8 8 8 7 7 6 6 6 6 6 6 6 6 6 6 6 6 6 6 5 5 5 5 5 5 4 4
22 21 20 20 18 17 18 20 20 19 16 16 14 13 12 12 11 8 7 7 7 6 6 6 6 6 6 6 6 6 6 6 6 6 6 5 5 5 5 5 5 5 4 4
22 21 21 20 19 18 19 20 20 17 15 15 14 13 12 12 11 8 7 7 6 6 6 6 6 6 6 6 6 6 6 6 6 6 5 5 5 5 5 5 5 5 5 4
21 21 21 20 18 16 19 19 17 15 15 14 13 12 11 10 8 7 7 7 6 6 6 6 6 6 6 6 6 6 6 5 5 5 5 5 5 5 5 5 5 5 4 5
21 20 20 18 17 17 16 16 15 15 14 13 12 11 10 9 8 7 7 6 6 6 6 6 6 6 6 6 6 5 5 5 5 5 5 5 5 5 5 5 5 5 5 5
21 21 20 18 18 17 16 15 15 14 13 12 11 10 9 8 8 7 7 6 6 6 6 6 6 6 6 6 6 5 5 5 5 5 5 5 5 5 5 5 5 5 5 4
21 21 20 18 17 17 16 15 14 13 12 11 11 10 9 8 8 7 7 6 6 6 6 6 6 6 6 6 6 6 6 6 6 6 6 6 6 6 5 5 5 4 4 4
22 21 20 18 18 17 15 14 14 13 12 11 10 9 9 8 8 7 7 7 7 6 6 6 6 6 6 6 6 6 6 6 6 6 6 6 6 6 5 5 5 4 4 4
Wind_Speed
11 12 12 12 14 15 16 15 13 9 8 11 11 7 2 4 3 5 6 7 8 9 11 11 10 8 9 9 8 6 6 7 6 6 6 5 4 4 5 5 8 8 8 7
12 14 13 12 12 11 14 15 11 4 4 6 7 6 4 6 7 7 8 8 9 11 13 11 10 9 8 8 6 4 4 5 5 4 4 4 5 6 6 6 10 11 10 9
13 10 8 10 11 11 13 14 10 7 5 7 7 7 6 7 8 8 9 9 11 13 12 11 11 11 9 8 6 4 3 4 4 4 5 6 6 6 5 7 7 11 12 12
12 11 9 9 11 11 13 12 11 11 9 9 12 10 11 11 9 8 10 10 12 13 12 12 11 11 10 9 9 9 9 6 4 4 6 8 7 7 6 7 8 10 13 13
12 10 11 12 12 12 12 11 11 12 12 12 12 10 9 12 10 9 10 11 12 12 12 12 11 11 11 11 10 9 11 10 9 7 7 8 9 9 9 9 11 10 10 13
15 13 11 12 11 11 11 12 12 13 13 16 15 12 9 11 12 11 11 12 12 12 12 11 11 12 12 12 11 11 13 13 13 13 12 12 12 12 12 11 10 8 8 9
12 12 12 11 12 11 12 11 9 10 13 15 15 11 4 10 14 15 14 12 11 11 10 11 12 12 12 13 13 13 15 15 14 15 15 14 13 13 12 11 10 9 9 9
9 10 10 9 12 10 12 14 12 8 8 10 9 5 8 14 16 16 16 13 12 12 12 12 12 12 12 13 13 14 15 15 14 15 15 14 13 11 11 12 11 10 9 8
6 7 10 11 12 13 13 15 15 12 11 9 3 5 8 15 17 17 17 15 13 12 13 13 13 13 13 13 14 14 15 15 15 15 15 15 14 13 13 12 12 9 8 8
6 7 9 10 10 13 13 11 8 9 8 9 6 7 9 18 18 17 17 15 14 13 13 13 12 13 13 13 14 14 15 15 15 14 13 14 13 13 12 12 12 10 8 7
5 6 9 7 8 10 10 11 9 9 8 7 4 2 3 15 17 17 16 16 15 14 13 12 12 12 13 13 13 14 14 15 14 14 14 13 12 11 11 10 10 8 7 6
2 3 7 8 7 9 10 9 8 8 8 7 4 1 5 15 16 17 17 16 15 14 13 13 13 13 12 13 13 13 12 13 13 13 12 11 10 10 10 10 8 7 7 7
5 2 4 6 5 6 6 7 7 8 8 7 4 3 9 15 17 17 18 16 15 14 14 13 12 12 12 12 12 12 12 12 12 12 12 11 10 10 9 8 8 7 7 7
1 2 2 5 7 7 6 5 5 6 6 5 2 6 10 14 16 16 16 16 15 14 14 13 13 12 11 11 11 11 11 10 10 10 11 10 9 9 8 7 7 6 5 5
0 3 3 8 10 8 4 4 4 5 6 3 4 6 8 12 14 16 15 15 15 14 14 13 12 11 10 10 9 9 9 9 9 10 10 9 8 7 7 6 6 5 5 6
2 3 5 6 6 4 2 6 7 6 7 6 8 6 9 13 14 15 15 15 15 14 14 13 12 11 10 9 8 8 8 7 7 8 9 8 7 7 6 5 5 5 5 6
3 3 4 5 3 3 3 7 7 8 8 6 6 7 12 13 14 14 14 14 15 14 14 12 11 10 8 7 6 8 7 7 7 7 7 7 6 6 5 6 5 4 5 5
4 5 4 6 4 1 3 6 8 10 11 12 13 13 12 13 12 11 13 15 15 14 13 11 10 8 7 6 6 6 6 6 7 7 7 6 6 5 5 5 4 4 4 4
1 3 4 3 2 4 4 4 5 5 8 11 13 13 15 16 14 10 11 14 15 14 13 11 9 8 7 6 6 5 4 6 7 7 6 5 5 5 4 4 4 3 3 2
2 3 4 4 2 1 4 5 4 3 5 8 11 12 13 11 7 7 11 14 15 13 11 10 9 8 7 6 5 4 5 5 6 6 6 5 4 4 4 4 3 2 2 2
2 3 4 4 1 5 6 5 4 2 3 7 8 9 8 4 7 14 15 14 14 13 11 10 9 8 6 5 5 4 5 6 5 5 4 4 3 1 2 3 2 3 3 2
4 4 3 4 3 4 8 6 6 6 8 9 10 11 12 14 18 18 17 15 14 12 11 10 8 7 6 5 5 6 6 5 4 3 3 2 1 2 3 2 1 2 3 2
4 6 5 6 7 8 11 10 10 10 12 12 13 14 16 18 18 18 16 14 13 12 10 9 8 8 7 5 5 6 5 3 3 2 1 0 1 2 2 2 2 2 2 2
4 4 6 7 9 11 11 12 12 13 13 14 15 16 17 18 17 16 14 13 12 11 10 8 8 8 7 6 6 5 3 2 1 0 1 1 1 1 1 1 3 4 5 5
6 4 6 9 11 11 11 12 13 14 15 16 16 16 17 17 16 15 13 12 11 10 9 8 7 8 8 6 5 5 3 2 0 1 2 2 1 1 2 3 4 5 5 4
3 4 3 5 10 9 13 13 14 14 15 16 17 16 16 16 16 15 13 11 11 10 9 8 8 7 7 6 5 3 2 2 2 2 3 2 1 1 2 5 4 7 5 4
Wind_Direction
230 237 244 243 241 255 279 286 278 254 179 187 198 193 159 88 76 98 109 117 111 98 83 80 84 75 84 93 104 116 134 138 147 157 166 167 148 120 99 81 74 71 64 67
244 240 251 263 266 264 273 276 275 256 166 194 188 172 113 88 78 63 63 76 94 91 80 70 76 79 72 76 92 115 136 139 147 154 154 147 128 109 96 83 69 67 65 60
253 260 254 256 259 255 259 261 259 256 234 211 202 208 172 126 102 87 77 70 76 79 76 68 65 64 64 62 58 71 81 111 134 137 139 135 119 112 100 85 73 58 57 55
261 258 256 252 255 251 252 250 253 258 243 225 210 219 196 160 131 110 92 81 77 74 71 64 60 58 53 53 51 47 50 61 77 111 143 140 131 120 101 91 83 70 61 59
267 260 253 248 247 250 255 259 243 244 246 253 232 231 204 168 154 133 108 93 81 76 73 67 59 54 52 50 52 54 53 52 56 66 90 105 102 100 97 92 85 77 67 63
270 274 261 256 250 245 253 257 250 242 245 244 241 242 205 177 164 137 114 99 87 80 77 72 65 58 54 53 53 57 60 56 55 62 72 90 101 105 101 95 91 82 73 65
265 265 260 254 251 234 235 243 238 230 233 241 231 230 143 142 139 136 122 105 94 87 79 73 66 61 56 56 58 61 65 62 61 67 69 76 87 92 93 94 89 85 77 70
283 274 254 235 241 233 226 240 244 245 250 257 236 194 123 119 119 119 117 112 100 88 78 72 69 67 63 61 62 66 69 67 67 71 73 74 79 85 86 86 89 86 82 77
291 273 254 235 238 245 227 236 251 265 274 274 248 122 132 127 127 128 123 115 103 91 84 78 73 70 68 66 66 70 74 74 73 76 79 78 80 84 86 86 85 84 84 83
277 286 261 232 230 235 246 246 254 254 263 268 233 196 182 163 152 141 130 121 110 101 92 85 79 75 73 73 73 73 75 77 77 77 80 85 83 84 86 86 85 85 83 82
272 280 274 244 226 230 231 242 250 265 265 270 254 234 167 170 154 142 131 124 116 108 100 93 88 83 82 80 78 79 79 81 80 80 81 83 84 85 85 85 85 86 84 82
304 307 290 275 255 250 241 249 251 265 282 289 291 26 103 141 139 135 127 121 115 109 104 99 94 89 84 82 80 79 82 84 85 86 85 85 84 84 85 86 84 80 76 75
4 355 308 291 251 247 241 249 259 268 281 294 302 90 106 125 128 129 127 123 119 114 108 103 96 90 86 82 81 81 81 83 86 88 86 84 83 82 82 81 78 74 69 64
340 296 268 264 273 280 268 265 284 297 303 327 40 125 127 126 127 127 125 124 120 115 109 103 97 91 86 83 82 82 81 84 88 88 87 85 84 84 83 81 78 77 79 72
19 293 258 264 269 281 290 330 359 7 2 18 89 112 134 133 133 130 128 125 120 115 110 106 103 99 94 90 86 85 83 81 85 90 91 91 91 89 86 82 77 69 64 72
160 253 256 248 239 263 350 27 26 41 39 73 100 102 117 120 125 129 132 131 127 123 118 114 112 108 102 97 96 95 95 95 95 98 101 101 99 98 98 94 81 68 58 54
305 276 280 278 213 177 53 41 41 48 48 57 86 111 119 118 129 136 137 134 130 126 122 120 117 111 106 104 107 108 107 108 109 110 112 110 106 100 94 87 80 70 63 60
307 316 311 301 314 82 81 61 65 65 62 76 94 103 109 113 115 121 131 132 129 129 125 122 121 119 116 111 111 116 121 121 112 105 102 102 101 92 86 83 74 63 56 55
246 294 295 297 350 101 95 58 39 65 73 89 103 108 112 113 103 100 116 124 129 131 130 130 131 128 126 127 128 125 120 115 111 106 100 92 89 87 80 73 62 50 38 31
217 254 276 305 330 89 75 43 30 93 97 97 115 128 137 141 125 135 133 128 128 129 131 134 136 132 130 128 127 121 112 102 100 96 90 81 70 69 67 56 38 24 360 8
262 264 283 308 43 83 34 8 346 348 98 110 118 131 143 138 122 135 136 132 132 134 138 139 135 131 126 124 119 110 102 94 92 95 92 85 69 45 95 71 19 346 359 19
340 343 354 351 50 61 16 34 54 86 101 105 108 112 111 111 121 130 133 133 135 137 138 135 130 127 128 132 128 112 102 99 98 94 90 81 5 354 69 66 353 332 328 314
36 32 35 50 81 81 64 79 92 101 103 105 109 114 118 123 129 132 134 135 137 139 138 136 136 133 134 130 119 111 109 115 115 106 106 143 351 34 26 359 340 334 341 352
114 85 105 106 106 99 93 93 93 99 104 109 114 119 122 125 129 131 132 134 137 137 137 141 141 137 132 130 125 125 136 143 138 171 245 242 213 169 111 6 12 29 24 15
105 122 107 114 122 116 106 102 103 106 109 111 115 121 124 126 130 130 130 133 135 137 140 145 141 137 138 143 147 152 153 156 213 280 285 281 259 143 121 85 48 44 65 52
96 112 154 151 150 136 125 120 118 117 118 119 121 122 125 128 128 128 129 131 133 136 139 141 143 143 145 150 152 157 167 196 247 270 273 268 207 170 154 136 123 62 85 109
Height
1483 1484 1480 1474 1470 1469 1466 1463 1460 1450 1445 1454 1460 1464 1464 1465 1467 1469 1473 1475 1479 1484 1487 1490 1493 1496 1501 1506 1510 1515 1518 1521 1524 1527 1531 1534 1537 1539 1542 1544 1546 1548 1550 1551
1479 1478 1471 1467 1465 1466 1466 1466 1461 1454 1451 1456 1461 1467 1469 1472 1474 1477 1478 1480 1484 1488 1490 1493 1495 1499 1502 1506 1510 1514 1516 1519 1522 1525 1528 1531 1534 1536 1538 1540 1542 1545 1547 1548
1475 1470 1466 1467 1467 1469 1469 1467 1464 1462 1457 1458 1465 1473 1473 1475 1479 1481 1483 1486 1488 1491 1495 1498 1498 1500 1504 1506 1509 1512 1514 1516 1520 1523 1525 1528 1530 1532 1535 1538 1540 1542 1544 1545
1468 1464 1465 1467 1468 1468 1470 1461 1462 1463 1466 1467 1466 1481 1475 1476 1482 1485 1487 1490 1494 1496 1498 1500 1502 1504 1505 1507 1509 1510 1512 1514 1517 1520 1523 1525 1527 1529 1532 1535 1537 1539 1541 1543
1467 1463 1464 1466 1465 1464 1464 1458 1459 1463 1465 1468 1464 1475 1476 1475 1483 1489 1491 1494 1497 1500 1502 1504 1505 1506 1507 1507 1509 1511 1512 1514 1515 1518 1521 1523 1525 1527 1530 1532 1534 1537 1538 1539
1464 1461 1460 1460 1459 1460 1460 1461 1459 1460 1463 1476 1467 1473 1478 1476 1481 1489 1495 1498 1501 1504 1506 1507 1508 1508 1509 1510 1511 1511 1512 1514 1515 1517 1519 1521 1524 1526 1529 1530 1533 1535 1536 1538
1467 1464 1460 1460 1461 1459 1461 1468 1476 1478 1476 1471 1456 1466 1479 1474 1481 1488 1496 1501 1504 1507 1509 1509 1509 1510 1511 1512 1513 1513 1514 1515 1517 1518 1520 1522 1524 1527 1529 1531 1533 1535 1536 1538
1476 1475 1462 1459 1460 1460 1461 1464 1477 1484 1481 1467 1456 1468 1482 1479 1485 1491 1497 1503 1506 1509 1510 1511 1512 1513 1514 1515 1515 1515 1516 1518 1519 1520 1521 1524 1526 1528 1529 1532 1534 1536 1537 1539
1477 1476 1461 1456 1456 1455 1459 1459 1455 1465 1471 1476 1473 1481 1486 1484 1490 1495 1499 1503 1507 1510 1512 1514 1515 1516 1517 1518 1518 1519 1520 1521 1522 1523 1524 1526 1528 1530 1531 1533 1535 1537 1539 1541
1468 1474 1461 1453 1452 1451 1451 1451 1457 1464 1480 1484 1480 1479 1482 1485 1490 1495 1500 1505 1509 1512 1515 1517 1518 1519 1520 1521 1522 1523 1523 1524 1525 1526 1528 1529 1531 1533 1534 1536 1538 1540 1541 1543
1466 1474 1465 1455 1455 1454 1454 1453 1455 1457 1458 1474 1487 1486 1473 1480 1488 1495 1501 1507 1510 1514 1517 1519 1521 1523 1524 1525 1526 1527 1527 1528 1529 1530 1532 1533 1535 1537 1538 1540 1541 1543 1544 1545
1466 1473 1474 1462 1452 1447 1448 1450 1453 1465 1464 1461 1473 1488 1473 1478 1489 1497 1504 1509 1513 1516 1519 1522 1524 1527 1528 1529 1530 1531 1532 1532 1534 1535 1537 1538 1540 1541 1542 1544 1545 1546 1547 1548
1470 1480 1487 1477 1465 1454 1451 1448 1449 1452 1456 1463 1475 1491 1481 1485 1493 1501 1506 1511 1515 1518 1522 1525 1528 1530 1532 1533 1535 1536 1536 1537 1539 1540 1541 1543 1544 1545 1546 1547 1549 1549 1550 1551
1472 1481 1490 1493 1479 1467 1459 1452 1449 1453 1461 1469 1476 1487 1490 1492 1499 1505 1511 1515 1518 1521 1525 1528 1531 1533 1535 1537 1538 1539 1541 1542 1544 1545 1546 1547 1548 1549 1551 1551 1552 1553 1553 1553
1471 1480 1481 1478 1471 1465 1460 1456 1455 1459 1463 1474 1481 1487 1492 1495 1502 1508 1514 1518 1521 1525 1528 1530 1533 1535 1538 1540 1542 1543 1545 1546 1548 1549 1550 1551 1552 1553 1554 1555 1555 1556 1556 1556
1468 1477 1477 1475 1468 1466 1463 1460 1459 1464 1468 1474 1482 1493 1495 1499 1505 1511 1516 1520 1523 1527 1530 1533 1536 1538 1541 1543 1545 1546 1548 1550 1551 1552 1553 1554 1555 1556 1557 1557 1558 1558 1558 1557
1465 1470 1475 1473 1462 1465 1474 1469 1469 1471 1474 1477 1487 1496 1499 1504 1508 1513 1518 1522 1525 1529 1532 1535 1538 1540 1543 1545 1547 1549 1551 1553 1554 1555 1556 1557 1558 1559 1560 1560 1560 1560 1559 1558
1468 1470 1473 1472 1469 1484 1480 1469 1471 1475 1480 1484 1491 1498 1503 1507 1512 1516 1519 1522 1526 1530 1534 1537 1540 1542 1545 1548 1550 1552 1553 1555 1557 1558 1559 1560 1561 1561 1561 1561 1561 1561 1560 1559
1465 1469 1472 1474 1479 1483 1478 1473 1474 1479 1488 1491 1496 1502 1508 1512 1516 1521 1523 1525 1528 1531 1535 1538 1541 1545 1547 1550 1552 1554 1556 1557 1559 1560 1561 1562 1562 1563 1563 1563 1562 1562 1561 1560
1462 1464 1470 1472 1483 1491 1486 1477 1477 1481 1494 1496 1499 1504 1508 1510 1515 1524 1526 1527 1531 1534 1538 1541 1544 1547 1550 1552 1554 1556 1558 1559 1560 1562 1562 1563 1564 1564 1564 1563 1563 1562 1561 1561
1465 1464 1467 1471 1479 1486 1482 1479 1479 1490 1500 1499 1501 1504 1507 1509 1514 1522 1526 1530 1533 1537 1540 1543 1546 1549 1552 1554 1556 1558 1559 1561 1562 1563 1564 1564 1565 1565 1564 1564 1563 1562 1562 1560
1466 1467 1468 1470 1482 1495 1486 1483 1490 1498 1498 1501 1504 1506 1508 1511 1516 1522 1527 1532 1535 1539 1543 1546 1549 1551 1554 1556 1558 1559 1561 1562 1563 1564 1565 1565 1565 1565 1565 1564 1563 1562 1561 1561
1467 1473 1473 1481 1492 1492 1492 1493 1496 1498 1501 1504 1507 1510 1511 1515 1520 1525 1530 1534 1538 1542 1545 1548 1551 1554 1556 1558 1559 1561 1562 1563 1564 1565 1566 1566 1566 1565 1565 1564 1564 1563 1562 1561
1470 1472 1476 1483 1490 1493 1496 1498 1500 1502 1505 1508 1510 1513 1516 1519 1524 1528 1533 1537 1541 1544 1548 1550 1553 1555 1558 1559 1561 1562 1564 1565 1565 1566 1566 1566 1566 1565 1565 1564 1564 1563 1562 1560
1469 1472 1478 1485 1491 1495 1499 1502 1504 1506 1509 1512 1515 1518 1520 1524 1528 1532 1536 1540 1543 1547 1550 1553 1555 1557 1559 1561 1562 1564 1565 1565 1566 1566 1566 1566 1566 1565 1564 1564 1563 1562 1561 1560
1468 1473 1478 1483 1489 1493 1500 1504 1507 1510 1513 1516 1518 1522 1525 1528 1532 1535 1539 1543 1546 1549 1552 1555 1557 1559 1561 1562 1563 1564 1565 1566 1566 1566 1565 1565 1565 1565 1564 1563 1563 1562 1561 1560